sat.trackr.live / text

‹ back to catalog

STARLINK-35766

NORAD 67181 · 2025-303U

PAYLOAD ACTIVE UNKNOWN

§ Identity

Operator
Country
US
Launch date
2025-12-17
Launch site
AFETR
Launch vehicle
Mass (kg)
RCS (m²)

Purposes: comms

External: N2YO · Heavens-Above · Gunter

§ Orbital elements

Epoch: 2026-09-19T19:05:29.095296Z

Period
94.27 min
Inclination
43.0039°
Eccentricity
0.0001550
Mean motion
15.27589946 rev/d
Perigee alt
482.0 km
Apogee alt
484.1 km
Semi-major
6,861.2 km
B*
5.0969e-4
RAAN
294.2873°
Arg perigee
265.6051°
Mean anomaly
94.4624°
Rev number
4,242

§ Raw data

STARLINK-357661 67181U 25303U   26262.79547564  .00013794  00000+0  50969-3 0  99962 67181  43.0039 294.2873 0001550 265.6051  94.4624 15.27589946 42422

JSON: /api/v1/satellites/67181 · /tle

For live sub-satellite position, see the globe view (requires WebGL).

§ Visibility from observer

Set your observer location to see the next 7 days of passes ≥ 10°. The values pass through the URL so the page stays shareable.

No JS? Fill the form by hand. The geolocation button needs JavaScript.